"Time","Temp","Dewpoint","Humidity","Pressure","Direction","Speed","Gust","Precip","PrecipRate"
"00:04:56","39.9","27","59.7","30.29","304","2.7","6","0.00","0.00"
"00:09:57","40.1","27","59.3","30.29","295","2.2","7.2","0.00","0.00"
"00:14:57","40.1","26.9","59","30.29","308","2","6","0.00","0.00"
"00:19:59","40.2","27.1","59.2","30.29","333","3.7","10.8","0.00","0.00"
"00:24:58","40.3","27.1","59","30.29","307","2.8","7.2","0.00","0.00"
"00:29:56","40.5","27.3","59","30.29","304","3.1","8.4","0.00","0.00"
"00:34:58","40.7","27.3","58.7","30.29","330","3.9","9.6","0.00","0.00"
"00:39:56","41","27.3","58.1","30.29","324","3.8","8.4","0.00","0.00"
"00:44:58","40.9","27.4","58.4","30.29","323","1.5","3.6","0.00","0.00"
"00:49:56","40.7","27.1","58","30.29","342","2.4","8.4","0.00","0.00"
"00:54:58","40.8","27.5","58.7","30.29","341","3.7","12","0.00","0.00"
"00:59:56","40.9","27.3","58.2","30.30","308","3.7","13.2","0.00","0.00"
"01:04:57","40.9","27.3","58.2","30.30","316","3.4","7.2","0.00","0.00"
"01:09:56","40.9","27.2","58","30.30","318","2.5","7.2","0.00","0.00"
"01:14:59","40.9","27.3","58.2","30.30","326","3.5","9.6","0.00","0.00"
"01:19:57","40.9","27.2","58","30.29","326","4.1","9.2","0.00","0.00"
"01:24:59","40.9","27.2","58","30.29","331","2.3","12","0.00","0.00"
"01:29:57","40.8","27.4","58.4","30.30","337","4.1","11.5","0.00","0.00"
"01:34:59","40.7","27.4","58.8","30.30","311","2.9","7.2","0.00","0.00"
"01:39:57","40.5","27.3","59","30.30","349","3","6","0.00","0.00"
"01:44:59","40.4","27.2","59","30.30","345","2.9","8.4","0.00","0.00"
"01:49:57","40.2","27.1","59.3","30.30","342","3.4","7.2","0.00","0.00"
"01:54:59","40.2","27.1","59.5","30.30","321","2.1","6","0.00","0.00"
"01:59:57","40","27.2","60","30.30","325","3.5","12","0.00","0.00"
"02:04:58","39.9","27.1","60","30.30","343","3","13.2","0.00","0.00"
"02:09:57","39.8","27","60","30.30","353","4.3","10.8","0.00","0.00"
"02:14:59","39.7","26.9","60","30.30","354","3.6","10.4","0.00","0.00"
"02:19:57","39.7","26.9","60","30.29","350","3","9.2","0.00","0.00"
"02:24:56","39.6","27","60.6","30.29","344","2.1","7.2","0.00","0.00"
"02:29:58","39.5","27.2","61","30.29","340","2.6","8.4","0.00","0.00"
"02:34:56","39.3","27","61","30.28","5","0.3","3.5","0.00","0.00"
"02:39:58","39.1","26.9","61.2","30.28","338","2.5","8.4","0.00","0.00"
"02:44:57","38.9","27","61.8","30.28","353","3.6","10.8","0.00","0.00"
"02:49:59","38.9","27","62","30.28","7","1.2","4.6","0.00","0.00"
"02:54:57","38.6","26.7","62","30.28","340","2.8","7.2","0.00","0.00"
"02:59:59","38.7","26.8","62","30.28","321","2.8","6.9","0.00","0.00"
"03:04:58","38.6","26.7","62","30.28","336","2.6","6","0.00","0.00"
"03:09:58","38.6","26.9","62.6","30.28","332","2.5","4.8","0.00","0.00"
"03:14:56","38.4","26.9","63","30.28","322","3","6","0.00","0.00"
"03:19:56","38.2","26.7","63","30.28","331","2.7","7.2","0.00","0.00"
"03:24:57","38.1","26.6","63","30.28","336","2.3","6","0.00","0.00"
"03:29:58","38","26.8","63.8","30.28","332","1.6","7.2","0.00","0.00"
"03:34:56","37.8","26.7","64","30.28","359","2.4","8.4","0.00","0.00"
"03:39:58","37.6","26.6","64.2","30.28","356","2.7","8.4","0.00","0.00"
"03:44:56","37.4","26.7","65","30.28","338","2","3.6","0.00","0.00"
"03:49:56","37.1","26.4","65","30.28","344","1.9","4.8","0.00","0.00"
"03:54:58","36.9","26.5","65.6","30.28","345","3.4","7.2","0.00","0.00"
"03:59:56","36.7","26.4","66","30.28","336","3.5","7.2","0.00","0.00"
"04:04:58","36.6","26.5","66.3","30.28","330","3","4.8","0.00","0.00"
"04:09:57","36.5","26.6","67","30.28","344","3.8","7.2","0.00","0.00"
"04:14:56","36.4","26.5","67","30.28","340","4.3","7.2","0.00","0.00"
"04:19:58","36.2","26.4","67.4","30.28","334","3.9","7.2","0.00","0.00"
"04:24:56","36.1","26.5","67.6","30.28","336","3.6","8.4","0.00","0.00"
"04:29:58","36.1","26.3","67.2","30.28","321","3.3","4.8","0.00","0.00"
"04:34:57","36.2","26.3","67","30.28","330","4.1","7.2","0.00","0.00"
"04:39:56","36.2","26.3","67","30.28","331","3.6","6","0.00","0.00"
"04:44:57","36","26.3","67.4","30.28","350","3.6","7.2","0.00","0.00"
"04:49:59","35.8","26.3","68","30.28","328","3.9","7.2","0.00","0.00"
"04:54:57","35.6","26.2","68","30.28","349","3.8","7.2","0.00","0.00"
"04:59:58","35.4","26.2","69","30.28","336","3.8","8.4","0.00","0.00"
"05:04:58","35.3","26.1","69","30.28","345","4.4","12","0.00","0.00"
"05:09:58","35.3","26.1","69","30.28","352","4.7","8.4","0.00","0.00"
"05:14:56","35.3","26.1","69","30.28","341","4.2","8.4","0.00","0.00"
"05:19:58","35.2","26","69","30.28","350","4.8","12","0.00","0.00"
"05:24:56","35.2","26","69","30.28","343","5.1","10.8","0.00","0.00"
"05:29:57","35.2","26","69","30.28","337","4","10.4","0.00","0.00"
"05:34:59","35.2","25.8","68.3","30.28","322","4.3","13.2","0.00","0.00"
"05:39:57","35.2","25.7","68","30.28","336","4.6","7.2","0.00","0.00"
"05:44:58","35.2","25.7","68","30.28","339","4.5","12","0.00","0.00"
"05:49:59","35.1","25.7","68.4","30.28","340","4.4","12","0.00","0.00"
"05:54:56","34.9","25.8","69","30.28","344","3.8","8.4","0.00","0.00"
"05:59:57","34.8","25.7","69","30.29","352","3.3","8.4","0.00","0.00"
"06:04:58","34.6","25.5","69","30.29","348","3.1","7.2","0.00","0.00"
"06:09:58","34.5","25.4","69","30.29","347","2.4","8.4","0.00","0.00"
"06:14:59","34.4","25.4","69.3","30.29","353","4.4","12","0.00","0.00"
"06:19:57","34.3","25.5","70","30.29","337","4","9.6","0.00","0.00"
"06:24:58","34.3","25.5","70","30.29","337","3.3","8.4","0.00","0.00"
"06:29:59","34.3","25.3","69.4","30.29","332","4.4","13.2","0.00","0.00"
"06:34:57","34.3","25.3","69.3","30.29","334","4.4","12","0.00","0.00"
"06:39:59","34.2","25.2","69.2","30.29","350","5.4","12","0.00","0.00"
"06:44:57","34.1","25.2","69.5","30.30","334","4.8","12","0.00","0.00"
"06:49:58","34.1","25.3","70","30.30","331","5.7","15","0.00","0.00"
"06:54:56","34.1","25.3","69.9","30.30","330","5.9","16.1","0.00","0.00"
"06:59:58","34.1","25.3","69.8","30.30","317","4.2","12","0.00","0.00"
"07:04:59","34.1","25.3","70","30.30","336","4.7","11.5","0.00","0.00"
"07:09:57","34.2","25.3","69.6","30.30","340","5.5","10.8","0.00","0.00"
"07:14:59","34.6","25.5","69","30.30","324","3.5","7.2","0.00","0.00"
"07:19:56","35","25.6","68.3","30.30","331","4.1","8.4","0.00","0.00"
"07:24:58","35.2","25.7","68","30.30","339","5","13.2","0.00","0.00"
"07:29:59","35.3","25.9","68","30.30","335","4.8","12.7","0.00","0.00"
"07:34:56","35.6","25.9","67.6","30.30","339","3.2","11.5","0.00","0.00"
"07:39:57","35.9","26","67","30.30","338","4.9","13.2","0.00","0.00"
"07:44:59","36.2","26.1","66.6","30.30","338","4.9","15.6","0.00","0.00"
"07:49:56","36.4","26.1","66","30.30","341","4.6","15","0.00","0.00"
"07:54:57","36.6","26","65.2","30.30","345","7.1","15","0.00","0.00"
"07:59:59","36.8","26.4","65.7","30.30","343","4.2","15","0.00","0.00"
"08:04:59","37.3","26.6","65.1","30.30","334","4.6","10.8","0.00","0.00"
"08:09:58","37.6","26.5","64","30.30","344","6.1","13.2","0.00","0.00"
"08:14:56","37.7","26.6","64","30.30","343","5.4","13.2","0.00","0.00"
"08:19:56","38","26.8","63.8","30.30","341","6.5","13.2","0.00","0.00"
"08:24:57","38.2","26.7","63","30.30","331","6.6","13.2","0.00","0.00"
"08:29:58","38","26.3","62.3","30.30","324","8","15","0.00","0.00"
"08:34:59","37.8","26.3","63","30.30","321","8.1","16.1","0.00","0.00"
"08:39:56","37.9","26.3","62.7","30.30","331","8.3","18.4","0.00","0.00"
"08:44:57","38.2","26.5","62.5","30.30","343","6.9","15","0.00","0.00"
"08:49:58","39.1","27.2","62","30.30","331","4.8","14.4","0.00","0.00"
"08:54:56","39.4","27.2","61.4","30.30","342","6.5","16.1","0.00","0.00"
"08:59:56","39.2","27.1","61.3","30.30","341","8.5","17.3","0.00","0.00"
"09:04:57","39.1","26.9","61.2","30.30","338","6.7","15","0.00","0.00"
"09:09:56","39.3","27","61.1","30.30","338","7.3","14.4","0.00","0.00"
"09:14:57","39.5","27.4","61.4","30.30","318","6.2","15","0.00","0.00"
"09:19:58","40.6","28.2","61","30.29","352","7","15","0.00","0.00"
"09:24:59","40.6","27.8","60","30.29","334","6.2","17.3","0.00","0.00"
"09:29:56","40.9","28.1","60","30.30","318","5.4","13.2","0.00","0.00"
"09:34:57","41.3","28","59","30.30","334","6","13.2","0.00","0.00"
"09:39:57","41.4","28.3","59.5","30.30","353","5.3","16.1","0.00","0.00"
"09:44:58","41.8","28.6","59.5","30.30","342","6","13.2","0.00","0.00"
"09:49:58","42.1","28.9","59.1","30.30","322","5","12","0.00","0.00"
"09:54:56","43","29.4","58.3","30.30","334","4.2","10.4","0.00","0.00"
"09:59:57","42.7","28.7","57.6","30.30","329","7.1","17.3","0.00","0.00"
"10:04:57","42.4","29","58.9","30.29","302","5.5","12.7","0.00","0.00"
"10:09:56","43.1","29.2","57.8","30.29","326","4.7","13.2","0.00","0.00"
"10:14:58","43.3","29.1","57","30.29","343","7.4","16.1","0.00","0.00"
"10:19:59","43.2","29.2","57.5","30.29","347","6.5","15","0.00","0.00"
"10:24:56","43.7","29.7","57.6","30.29","316","6.6","15.6","0.00","0.00"
"10:29:56","44.9","30.2","56.2","30.29","315","4.9","16.1","0.00","0.00"
"10:34:57","44.5","29.8","56","30.28","296","6.3","16.1","0.00","0.00"
"10:39:58","45.4","30.9","56.8","30.28","325","4.8","12","0.00","0.00"
"10:44:59","45","29.6","54.7","30.28","338","6.4","13.2","0.00","0.00"
"10:49:56","45","30.1","55.8","30.28","349","6.3","15","0.00","0.00"
"10:54:57","45.6","31.1","56.6","30.28","321","6.4","18.4","0.00","0.00"
"10:59:58","46.5","31.1","54.8","30.28","325","4.7","13.2","0.00","0.00"
"11:04:59","46.2","30.9","55","30.27","317","5.6","15","0.00","0.00"
"11:09:57","46.7","31.1","54.4","30.27","298","4.5","8.4","0.00","0.00"
"11:14:59","47.8","31.9","53.9","30.27","293","5.6","13.2","0.00","0.00"
"11:19:59","47.8","31.8","53.7","30.27","259","4.8","12","0.00","0.00"
"11:24:56","48.2","31.7","52.7","30.27","306","4.3","10.8","0.00","0.00"
"11:29:57","48.4","31.7","52.3","30.27","336","5.8","15.6","0.00","0.00"
"11:34:58","47.1","30.5","52.3","30.27","334","9.1","20.7","0.00","0.00"
"11:39:59","47.4","30.9","52.4","30.27","328","6.4","16.1","0.00","0.00"
"11:44:56","47.9","31.3","52.6","30.27","322","6.9","18.4","0.00","0.00"
"11:49:57","48.3","32.1","53.3","30.26","352","4.5","18.4","0.00","0.00"
"11:54:58","49.3","32.6","52.6","30.26","326","4.6","15.6","0.00","0.00"
"11:59:59","49.4","32.1","51.1","30.26","333","5.5","16.1","0.00","0.00"
"12:04:56","50","32.2","50.3","30.25","321","4.9","10.8","0.00","0.00"
"12:09:59","49.9","32.3","50.7","30.25","336","6.5","14.4","0.00","0.00"
"12:14:56","49.8","32.1","50.4","30.25","307","5","16.1","0.00","0.00"
"12:19:57","50.4","32.2","49.5","30.25","312","6.1","16.1","0.00","0.00"
"12:24:59","51.3","33","49.3","30.25","302","5","12","0.00","0.00"
"12:29:56","50.7","31.7","48","30.25","341","5.7","13.2","0.00","0.00"
"12:34:57","51.3","32.6","48.7","30.25","338","6","12","0.00","0.00"
"12:39:58","51.2","32.7","48.9","30.25","310","6.1","18.4","0.00","0.00"
"12:44:55","51.2","32.7","49.1","30.25","310","6.1","15","0.00","0.00"
"12:49:57","52.6","34.2","49.4","30.24","286","3.9","12","0.00","0.00"
"12:54:57","53","33.4","47.3","30.24","284","4.6","18","0.00","0.00"
"12:59:58","52.4","32.9","47.2","30.24","7","5.9","18.4","0.00","0.00"
"13:04:59","52.9","34","48.6","30.23","266","4","8.4","0.00","0.00"
"13:09:58","53","33.1","46.5","30.23","311","4.1","12","0.00","0.00"
"13:14:56","52.6","32.7","46.6","30.23","304","5.1","10.8","0.00","0.00"
"13:19:57","53.2","33","46.1","30.23","356","4.2","14.4","0.00","0.00"
"13:24:58","52.9","32","44.8","30.23","344","7.8","18","0.00","0.00"
"13:29:59","53.2","32.8","45.9","30.23","352","5.1","13.2","0.00","0.00"
"13:34:56","53.4","33.1","45.9","30.22","341","5.2","17.3","0.00","0.00"
"13:39:57","53.5","32.9","45.6","30.22","352","5.4","17.3","0.00","0.00"
"13:44:59","53.9","34.2","47.3","30.22","29","3.4","15.6","0.00","0.00"
"13:49:56","53.9","32.9","44.8","30.22","327","5.7","19.6","0.00","0.00"
"13:54:57","54.1","33.6","45.9","30.22","344","4.5","13.2","0.00","0.00"
"13:59:58","54.6","32.9","43.8","30.22","335","5","12.7","0.00","0.00"
"14:04:59","54.2","32.8","44.2","30.21","338","4.1","12","0.00","0.00"
"14:09:57","54.5","33.5","45","30.21","343","5.6","15","0.00","0.00"
"14:14:59","54.4","33.3","44.7","30.21","22","3.3","12","0.00","0.00"
"14:19:57","55","33.2","43.6","30.20","326","4.2","14.4","0.00","0.00"
"14:24:58","55","32.9","43","30.20","326","6.6","17.3","0.00","0.00"
"14:29:59","53.9","31.7","42.7","30.20","333","6.5","15","0.00","0.00"
"14:34:57","55","33.4","43.9","30.20","327","5.6","19.6","0.00","0.00"
"14:39:58","53.8","31.2","42","30.20","322","6.9","19.6","0.00","0.00"
"14:44:56","54","32.7","44.2","30.20","358","4.5","15","0.00","0.00"
"14:49:57","55","32.9","43","30.19","2","5.4","16.1","0.00","0.00"
"14:54:59","55.6","34.2","44.4","30.19","343","2.8","12","0.00","0.00"
"14:59:56","55.7","32.7","41.6","30.19","341","5.5","16.8","0.00","0.00"
"15:04:57","55","32.4","42.1","30.19","338","6.4","15","0.00","0.00"
"15:09:56","54.7","32","41.9","30.19","303","5.8","17.3","0.00","0.00"
"15:14:58","55.1","33.2","43.3","30.19","341","3.3","12","0.00","0.00"
"15:19:56","55.5","33.1","42.6","30.19","352","3.3","9.6","0.00","0.00"
"15:24:58","55.7","32.6","41.4","30.19","345","6.5","16.1","0.00","0.00"
"15:29:56","55","32.1","41.6","30.19","351","6.9","17.3","0.00","0.00"
"15:34:56","55.4","32.8","42.2","30.19","261","2.6","7.2","0.00","0.00"
"15:39:57","56.3","33.5","42.2","30.19","332","3.4","10.8","0.00","0.00"
"15:44:58","55.6","32.7","41.7","30.19","24","4.2","16.8","0.00","0.00"
"15:49:56","55.5","32.3","41.2","30.17","343","6","17.3","0.00","0.00"
"15:54:57","55.1","32.2","41.8","30.17","16","3.7","15","0.00","0.00"
"15:59:58","55.1","33.2","43.5","30.17","11","2","4.8","0.00","0.00"
"16:04:58","55.5","32.4","41.4","30.17","10","4.1","12","0.00","0.00"
"16:09:56","55.3","32.8","42.3","30.17","352","3.1","8.4","0.00","0.00"
"16:14:58","55.1","32.2","41.7","30.17","336","5.2","15","0.00","0.00"
"16:19:59","55.6","33.2","42.6","30.17","318","2.8","8.4","0.00","0.00"
"16:24:56","55.4","32.7","42","30.17","354","2.8","6","0.00","0.00"
"16:29:57","54.8","32.2","42.2","30.17","351","3.6","9.6","0.00","0.00"
"16:34:58","54.8","32.6","42.9","30.17","329","2.2","7.2","0.00","0.00"
"16:39:56","54.9","32","41.7","30.17","336","4.5","19.6","0.00","0.00"
"16:44:57","54.6","31.5","41.3","30.18","339","5.7","16.1","0.00","0.00"
"16:49:58","54.6","31.7","41.7","30.18","342","4.1","10.8","0.00","0.00"
"16:54:59","54.6","31.8","41.9","30.18","334","3.6","10.8","0.00","0.00"
"16:59:57","54.4","31.9","42.2","30.18","355","3.7","12","0.00","0.00"
"17:04:58","54.3","31.9","42.4","30.18","332","2.2","6","0.00","0.00"
"17:09:57","54.4","31.9","42.2","30.18","336","3","8.4","0.00","0.00"
"17:14:58","54.5","32","42.2","30.18","358","2.5","8.4","0.00","0.00"
"17:19:59","54.2","31.7","42.2","30.18","336","3.1","8.4","0.00","0.00"
"17:24:57","53.7","31.7","42.9","30.18","337","1.2","6.9","0.00","0.00"
"17:29:58","53.4","31.4","43","30.18","343","2.8","10.8","0.00","0.00"
"17:34:59","53.2","31.3","43","30.18","338","2.7","6","0.00","0.00"
"17:39:57","53","30.9","42.8","30.18","338","2.4","6","0.00","0.00"
"17:44:59","52.5","30.8","43.3","30.18","335","2.7","10.8","0.00","0.00"
"17:49:56","52.1","30.8","44","30.18","306","0.5","2.3","0.00","0.00"
"17:54:58","51.7","30.8","44.5","30.18","306","0.2","2.4","0.00","0.00"
"17:59:56","51.3","30.6","44.8","30.18","323","1","4.8","0.00","0.00"
"18:04:57","50.9","30.7","45.8","30.18","324","1.4","3.6","0.00","0.00"
"18:09:56","50.5","30.6","46.2","30.18","324","0.3","2.4","0.00","0.00"
"18:14:58","50.2","30.5","46.6","30.19","324","0.1","2.4","0.00","0.00"
"18:19:56","49.8","30.4","47","30.19","324","0.2","2.3","0.00","0.00"
"18:24:58","49.3","30.4","47.9","30.19","324","0","1.2","0.00","0.00"
"18:29:56","48.9","30.6","49","30.19","324","0","0","0.00","0.00"
"18:34:58","48.3","30.6","50.2","30.19","324","0","1.2","0.00","0.00"
"18:39:56","47.7","30","50.2","30.19","324","0.2","1.2","0.00","0.00"
"18:44:58","47.2","29.8","50.7","30.19","324","0","1.2","0.00","0.00"
"18:49:56","46.7","30","51.9","30.19","324","0","0","0.00","0.00"
"18:54:58","46.3","30.1","53","30.19","324","0","0","0.00","0.00"
"18:59:56","45.9","29.7","52.9","30.19","324","0","0","0.00","0.00"
"19:04:57","45.5","30.4","55.3","30.19","324","0","0","0.00","0.00"
"19:09:56","45","31.1","58","30.19","324","0.1","1.2","0.00","0.00"
"19:14:59","44.4","30.5","58","30.19","324","0","0","0.00","0.00"
"19:19:58","44","30.1","57.8","30.19","324","0","0","0.00","0.00"
"19:24:56","43.6","29.9","58.3","30.19","324","0","0","0.00","0.00"
"19:29:57","43.2","30","59.4","30.19","324","0","0","0.00","0.00"
"19:34:59","42.7","30","60.4","30.19","324","0","0","0.00","0.00"
"19:39:58","42.3","29.8","61","30.19","324","0","0","0.00","0.00"
"19:44:56","42","29.5","61","30.19","324","0.1","1.2","0.00","0.00"
"19:49:58","41.8","29.5","61.3","30.19","324","0.6","2.4","0.00","0.00"
"19:54:56","41.8","29.7","62","30.19","324","0.1","2.3","0.00","0.00"
"19:59:57","41.7","29.6","62","30.19","324","0","1.2","0.00","0.00"
"20:04:59","41.6","29.6","62.2","30.19","324","0","0","0.00","0.00"
"20:09:58","41.4","29.7","63","30.19","324","0","0","0.00","0.00"
"20:14:57","41.2","29.5","63","30.19","324","0","0","0.00","0.00"
"20:19:59","41","29.6","63.7","30.19","324","0","0","0.00","0.00"
"20:24:57","40.6","29.9","65.5","30.19","324","0","0","0.00","0.00"
"20:29:58","40.2","29.7","66","30.20","324","0","0","0.00","0.00"
"20:34:56","40.1","29.6","66","30.20","324","0","0","0.00","0.00"
"20:39:59","40.2","29.7","66.1","30.20","324","0","0","0.00","0.00"
"20:44:57","39.9","30.2","67.8","30.20","324","0","0","0.00","0.00"
"20:49:59","39.3","30.1","69.2","30.20","324","0","0","0.00","0.00"
"20:54:57","38.7","29.9","70.5","30.20","324","0","0","0.00","0.00"
"20:59:59","38.2","29.9","71.7","30.20","324","0","0","0.00","0.00"
"21:04:56","37.8","29.6","72","30.20","324","0","0","0.00","0.00"
"21:09:56","37.4","29.5","72.9","30.20","324","0","0","0.00","0.00"
"21:14:58","37.1","29.3","73.3","30.20","324","0","0","0.00","0.00"
"21:19:56","37","29.5","74","30.20","324","0","0","0.00","0.00"
"21:24:58","36.8","29.4","74.2","30.20","324","0","0","0.00","0.00"
"21:29:57","36.8","29.6","75","30.20","324","0","0","0.00","0.00"
"21:34:59","36.6","29.5","75.2","30.20","324","0","0","0.00","0.00"
"21:39:58","36.3","29.5","76","30.20","324","0","0","0.00","0.00"
"21:44:56","36","29.5","76.8","30.20","324","0","0","0.00","0.00"
"21:49:58","35.8","29.3","77","30.20","324","0","0","0.00","0.00"
"21:54:56","35.6","29.2","77.4","30.20","324","0","0","0.00","0.00"
"21:59:58","35.4","29.2","78","30.20","324","0","0","0.00","0.00"
"22:04:59","35.2","29","78","30.19","324","0","0","0.00","0.00"
"22:09:59","35.2","29","78.3","30.19","324","0","0","0.00","0.00"
"22:14:57","35.5","29.2","77.7","30.19","324","0","0","0.00","0.00"
"22:19:59","35.6","29.1","77","30.19","324","0","0","0.00","0.00"
"22:24:57","35.4","29.1","77.6","30.19","324","0","0","0.00","0.00"
"22:29:59","35.2","29","78","30.19","324","0","0","0.00","0.00"
"22:34:57","35","28.7","77.6","30.19","324","0","0","0.00","0.00"
"22:39:59","34.9","28.4","77.2","30.19","324","0","0","0.00","0.00"
"22:44:57","34.9","28.7","78","30.19","324","0","0","0.00","0.00"
"22:49:59","35","28.7","77.6","30.18","324","0","0","0.00","0.00"
"22:54:56","34.8","28.5","77.6","30.18","324","0","0","0.00","0.00"
"22:59:59","34.4","28.4","78.6","30.18","324","0","0","0.00","0.00"
"23:04:56","34.2","28.4","79","30.18","324","0","0","0.00","0.00"
"23:09:59","34.1","28.6","80","30.18","324","0","0","0.00","0.00"
"23:14:58","34","28.4","79.7","30.18","324","0","0","0.00","0.00"
"23:19:56","33.7","28.2","80.1","30.18","324","0","0","0.00","0.00"
"23:24:58","33.3","28.2","81.1","30.18","324","0","0","0.00","0.00"
"23:29:56","33","28.1","82","30.18","324","0","0","0.00","0.00"
"23:34:58","33","28.2","82.4","30.18","324","0","0","0.00","0.00"
"23:39:57","33.1","28.5","83","30.18","324","0","0","0.00","0.00"
"23:44:56","33.1","28.2","82.2","30.18","324","0","0","0.00","0.00"
"23:49:59","33","28.3","82.8","30.18","324","0","0","0.00","0.00"
